This demonstration page uses our WeatherBlox Daily Observations layout. Learn more.

Left ArrowRight Arrow

53.62937, 11.41316

Hourly Observations for November 19, 2022

Temp ( °F °C ) Dew Point ( °F °C ) Humidity (%) Winds ( mph kmh ) Pressure ( in mb ) Visibility ( mi km ) Precip ( " mm )
12:20 am 00:20 Clear 23 -5 21 -6 93 93 Calm 29.97 1015 6 10 0.00 0.00
12:50 am 00:50 Clear 23 -5 21 -6 93 93 VRB 1 2 29.97 1015 6 10 0.00 0.00
1:20 am 01:20 Clear 23 -5 21 -6 93 93 Calm 29.97 1015 6 10 0.00 0.00
1:50 am 01:50 Clear 21 -6 21 -6 100 100 VRB 1 2 29.98 1015 6 10 0.00 0.00
2:20 am 02:20 Clear 23 -5 21 -6 93 93 Calm 29.97 1015 6 10 0.00 0.00
2:50 am 02:50 Clear 21 -6 21 -6 100 100 Calm 29.98 1015 6 10 0.00 0.00
3:20 am 03:20 Clear 21 -6 19 -7 93 93 Calm 29.98 1015 6 10 0.00 0.00
3:50 am 03:50 Mostly Cloudy 21 -6 21 -6 100 100 VRB 2 4 29.98 1015 6 10 0.00 0.00
4:20 am 04:20 Cloudy 21 -6 19 -7 93 93 VRB 1 2 29.98 1015 6 10 0.00 0.00
4:50 am 04:50 Mostly Cloudy 21 -6 19 -7 93 93 VRB 1 2 30.00 1016 6 10 0.00 0.00
5:20 am 05:20 Cloudy 23 -5 23 -5 100 100 VRB 2 4 30.00 1016 6 10 0.00 0.00
5:50 am 05:50 Cloudy 25 -4 23 -5 93 93 W 3 6 29.97 1015 6 10 0.00 0.00
6:20 am 06:20 Mostly Cloudy 27 -3 25 -4 93 93 VRB 1 2 29.97 1015 6 10 0.00 0.00
6:50 am 06:50 Mostly Cloudy 27 -3 25 -4 93 93 WSW 5 7 29.97 1015 6 10 0.00 0.00
7:20 am 07:20 Mostly Cloudy 27 -3 25 -4 93 93 WSW 3 6 29.97 1015 6 10 0.00 0.00
7:50 am 07:50 Mostly Cloudy 28 -2 27 -3 93 93 W 5 7 29.97 1015 6 10 0.00 0.00
8:20 am 08:20 Partly Cloudy 28 -2 27 -3 93 93 W 5 7 29.97 1015 6 10 0.00 0.00
8:50 am 08:50 Mostly Sunny 28 -2 27 -3 93 93 VRB 2 4 29.97 1015 6 10 0.00 0.00
9:20 am 09:20 Mostly Sunny 30 -1 28 -2 93 93 NW 2 4 29.97 1015 6 10 0.00 0.00
9:50 am 09:50 Mostly Sunny 32 0 30 -1 93 93 W 5 7 29.97 1015 6 10 0.00 0.00
10:20 am 10:20 Mostly Sunny 34 1 30 -1 86 86 WNW 5 7 29.97 1015 6 10 0.00 0.00
10:50 am 10:50 Mostly Sunny 36 2 32 0 87 87 NW 6 9 29.97 1015 6 10 0.00 0.00
11:20 am 11:20 Mostly Sunny 36 2 32 0 87 87 WNW 7 11 29.97 1015 6 10 0.00 0.00
11:50 am 11:50 Mostly Sunny 36 2 32 0 87 87 NW 7 11 29.97 1015 6 10 0.00 0.00
12:20 pm 12:20 Mostly Sunny 36 2 32 0 87 87 WNW 6 9 29.94 1014 6 10 0.00 0.00
12:50 pm 12:50 Mostly Sunny 37 3 32 0 81 81 WNW 5 7 29.94 1014 6 10 0.00 0.00
1:20 pm 13:20 Mostly Sunny 36 2 32 0 87 87 WNW 7 11 29.94 1014 6 10 0.00 0.00
1:50 pm 13:50 Mostly Sunny 37 3 32 0 81 81 WNW 6 9 29.94 1014 6 10 0.00 0.00
2:20 pm 14:20 Mostly Cloudy 37 3 32 0 81 81 WNW 7 11 29.94 1014 6 10 0.00 0.00
2:50 pm 14:50 Partly Cloudy 37 3 32 0 81 81 WNW 6 9 29.94 1014 6 10 0.00 0.00
3:20 pm 15:20 Cloudy 37 3 32 0 81 81 WNW 7 11 29.91 1013 6 10 0.00 0.00
3:50 pm 15:50 Mostly Cloudy with Showers Nearby 37 3 32 0 81 81 WNW 7 11 29.91 1013 6 10 0.00 0.00
4:20 pm 16:20 Cloudy 37 3 34 1 87 87 WNW 5 7 29.91 1013 6 10 0.00 0.00
4:50 pm 16:50 Mostly Clear 36 2 32 0 87 87 WNW 5 7 29.91 1013 6 10 0.00 0.00
5:20 pm 17:20 Partly Cloudy 36 2 32 0 87 87 WNW 7 11 29.88 1012 6 10 0.00 0.00
5:50 pm 17:50 Cloudy 36 2 32 0 87 87 NW 8 13 29.88 1012 6 10 0.00 0.00
6:20 pm 18:20 Cloudy 37 3 32 0 81 81 NW 8 13 29.88 1012 6 10 0.00 0.00
6:50 pm 18:50 Partly Cloudy 36 2 30 -1 80 80 NW 6 9 29.88 1012 6 10 0.00 0.00
7:20 pm 19:20 Mostly Cloudy 36 2 32 0 87 87 NW 7 11 29.88 1012 6 10 0.00 0.00
7:50 pm 19:50 Mostly Cloudy 36 2 32 0 87 87 NW 8 13 29.88 1012 6 10 0.00 0.00
8:20 pm 20:20 Cloudy with Light Rain 36 2 32 0 87 87 NW 6 9 29.88 1012 6 10 0.00 0.00
8:50 pm 20:50 Cloudy with Light Rain 36 2 32 0 87 87 NNW 7 11 29.88 1012 6 10 0.00 0.00
9:20 pm 21:20 Cloudy with Light Rain 34 1 32 0 93 93 VRB 2 4 29.88 1012 6 10 0.00 0.00
9:50 pm 21:50 Cloudy 34 1 34 1 100 100 WNW 7 11 29.88 1012 6 10 0.00 0.00
10:20 pm 22:20 Cloudy with Light Rain 36 2 32 0 87 87 NW 7 11 29.88 1012 6 10 0.00 0.00
10:50 pm 22:50 Mostly Cloudy 34 1 34 1 100 100 NW 5 7 29.88 1012 6 10 0.00 0.00
11:20 pm 23:20 Cloudy with Light Rain 34 1 32 0 93 93 WNW 5 7 29.86 1011 6 10 0.00 0.00
11:50 pm 23:50 Cloudy with Light Wintry Mix 34 1 32 0 93 93 W 6 9 29.86 1011 6 10 0.00 0.00

Powered by AerisWeather